FW7227 Weather Reports


time (UTC)temp
F
wind
direction
speed
knots
gust
knots
rain 1hr
in
rain 24hr
in
rain mn
in
humidity
%
barometer
mb
20260904083557 72 259 9.6 16.5 0.00 0.03 0.00 74 1009.5
20260904083102 72 267 7.0 16.5 0.00 0.03 0.00 75 1009.4
20260904082556 71 237 9.6 16.5 0.00 0.03 0.00 75 1009.4
20260904082057 71 245 8.7 16.5 0.00 0.03 0.00 76 1009.4
20260904081607 70 253 9.6 20.9 0.00 0.03 0.00 77 1009.6
20260904081056 70 237 10.4 20.9 0.00 0.03 0.00 78 1009.8
20260904080556 70 225 9.6 18.2 0.00 0.03 0.00 78 1009.9
20260904080112 70 239 8.7 15.6 0.00 0.03 0.00 79 1009.9
20260904075557 70 234 7.0 15.6 0.00 0.03 0.00 79 1010.0
20260904075057 70 254 7.8 17.4 0.00 0.03 0.00 79 1009.9
20260904074636 70 259 7.0 17.4 0.00 0.03 0.00 79 1009.9
20260904074058 70 277 7.0 17.4 0.00 0.03 0.00 79 1009.9
20260904073602 70 229 8.7 17.4 0.00 0.03 0.00 79 1009.8
20260904073101 70 201 7.8 15.6 0.00 0.03 0.00 80 1009.8
20260904072558 69 216 7.8 14.8 0.00 0.03 0.00 81 1009.8
20260904072058 69 247 9.6 14.8 0.00 0.03 0.00 81 1009.9
20260904071605 69 227 7.0 13.9 0.00 0.03 0.00 83 1010.0
20260904071057 68 217 7.0 13.9 0.00 0.03 0.00 83 1010.0
20260904070602 68 247 6.1 13.9 0.00 0.03 0.00 84 1010.2
20260904070108 68 249 7.0 13.0 0.00 0.03 0.00 84 1010.3
20260904065557 68 248 5.2 13.0 0.00 0.03 0.00 85 1010.3
20260904065058 68 235 5.2 15.6 0.00 0.03 0.00 85 1010.4
20260904064604 68 242 5.2 19.1 0.00 0.03 0.00 85 1010.3
20260904064100 67 261 10.4 19.1 0.00 0.03 0.00 84 1010.5
20260904063600 68 261 8.7 15.6 0.00 0.03 0.00 84 1010.6
20260904063111 67 212 7.8 14.8 0.00 0.03 0.00 84 1010.7
20260904062600 67 234 7.0 12.2 0.00 0.03 0.00 85 1010.5
20260904062057 67 195 5.2 11.3 0.00 0.03 0.00 85 1010.6
20260904061606 67 214 4.3 13.0 0.00 0.03 0.00 86 1010.7
20260904061057 66 231 6.1 13.0 0.00 0.03 0.00 87 1010.7
20260904060558 66 236 4.3 12.2 0.00 0.03 0.00 87 1010.9
20260904060113 66 213 2.6 12.2 0.00 0.03 0.00 87 1010.9
20260904055557 66 224 4.3 13.9 0.00 0.03 0.00 87 1011.0
20260904055057 65 234 6.1 13.9 0.00 0.03 0.00 88 1011.1
20260904054608 65 241 7.0 12.2 0.00 0.03 0.00 88 1011.1
20260904054058 65 229 5.2 11.3 0.00 0.02 0.00 89 1011.4
20260904053558 65 217 5.2 11.3 0.00 0.02 0.00 89 1011.4
20260904053101 64 201 6.1 11.3 0.00 0.02 0.00 89 1011.5
20260904052558 64 238 5.2 9.6 0.00 0.02 0.00 90 1011.5
20260904052059 64 268 3.5 8.7 0.00 0.02 0.00 90 1011.6
20260904051608 63 234 2.6 7.8 0.00 0.02 0.00 90 1011.6
20260904051057 63 230 3.5 7.8 0.00 0.02 0.00 90 1011.6
20260904050557 63 218 3.5 7.8 0.00 0.02 0.00 90 1011.6
20260904050108 63 220 2.6 7.0 0.00 0.02 0.00 90 1011.7
20260904045558 63 219 2.6 7.8 0.00 0.02 0.00 90 1011.6
20260904045059 63 225 2.6 7.8 0.00 0.02 0.00 90 1011.6
20260904044609 63 213 2.6 6.1 0.00 0.02 0.00 90 1011.7
20260904044101 63 220 2.6 7.8 0.00 0.02 0.00 90 1011.8
20260904043558 63 217 3.5 7.8 0.00 0.02 0.00 90 1011.9
20260904043100 63 219 2.6 6.1 0.00 0.02 0.00 89 1011.9
20260904042558 63 232 2.6 7.0 0.00 0.02 0.00 89 1012.0
20260904042057 63 232 2.6 7.0 0.00 0.02 0.00 89 1012.1
20260904041559 63 213 3.5 7.0 0.00 0.02 0.00 89 1012.2
20260904041057 63 225 3.5 8.7 0.00 0.02 0.00 89 1012.2
20260904040601 63 223 2.6 8.7 0.00 0.02 0.00 89 1012.2
20260904040110 63 223 2.6 7.0 0.00 0.02 0.00 89 1012.3
20260904035557 63 228 3.5 7.8 0.00 0.02 0.00 90 1012.5
20260904035058 63 203 4.3 7.8 0.00 0.02 0.00 90 1012.6
20260904034615 63 209 3.5 7.0 0.00 0.02 0.00 90 1012.6
20260904034057 63 222 2.6 7.0 0.00 0.02 0.00 90 1012.7
20260904033558 63 217 2.6 7.0 0.00 0.02 0.00 90 1012.8
20260904033100 62 225 2.6 7.8 0.00 0.02 0.00 90 1012.9
20260904032557 62 227 3.5 7.8 0.00 0.02 0.00 90 1013.0
20260904032057 62 221 2.6 7.0 0.00 0.02 0.00 90 1013.1
20260904031606 62 244 2.6 7.0 0.00 0.02 0.00 90 1013.1
20260904031057 62 221 3.5 7.0 0.00 0.02 0.00 90 1013.2
20260904030601 62 225 3.5 7.8 0.00 0.02 0.00 90 1013.2
20260904030106 62 225 2.6 7.8 0.00 0.02 0.00 91 1013.2
20260904025559 62 209 4.3 7.8 0.00 0.02 0.00 91 1013.3
20260904025057 62 221 2.6 7.0 0.00 0.02 0.00 90 1013.5
20260904024602 61 240 1.7 6.1 0.00 0.02 0.00 90 1013.5
20260904024058 61 215 2.6 6.1 0.00 0.02 0.00 90 1013.5
20260904023557 61 217 2.6 6.1 0.00 0.02 0.00 90 1013.6
20260904023107 61 194 1.7 6.1 0.00 0.02 0.00 90 1013.5
20260904022558 61 215 2.6 6.1 0.00 0.02 0.00 90 1013.7
20260904022058 61 214 2.6 4.3 0.00 0.02 0.00 90 1013.7
20260904021608 61 221 2.6 6.1 0.00 0.02 0.00 90 1013.9
20260904021057 61 202 2.6 6.1 0.00 0.02 0.00 90 1013.8
20260904020557 61 217 0.9 4.3 0.00 0.02 0.00 90 1013.9
20260904020107 61 214 1.7 4.3 0.00 0.02 0.00 89 1013.8
20260904015559 61 215 0.9 3.5 0.00 0.02 0.00 89 1013.9
20260904015057 61 216 1.7 4.3 0.00 0.02 0.00 89 1014.1
20260904014604 61 219 1.7 4.3 0.00 0.02 0.00 89 1014.0
20260904014057 61 218 0.9 4.3 0.00 0.02 0.00 89 1014.0
20260904013556 61 221 1.7 4.3 0.00 0.02 0.00 89 1014.0
20260904013105 62 225 0.9 5.2 0.00 0.02 0.00 89 1014.0
20260904012558 62 227 1.7 5.2 0.00 0.02 0.00 89 1014.1
20260904012059 62 228 1.7 6.1 0.00 0.02 0.00 89 1014.1
20260904011559 62 226 1.7 6.1 0.00 0.02 0.00 89 1014.1
20260904011056 62 241 2.6 7.0 0.00 0.02 0.00 89 1014.2
20260904010557 61 240 2.6 7.0 0.00 0.02 0.00 89 1014.4
20260904010106 61 252 2.6 6.1 0.00 0.02 0.00 89 1014.5
20260904005558 62 236 2.6 7.0 0.00 0.02 0.00 89 1014.5
20260904005100 62 240 2.6 7.0 0.00 0.02 0.00 89 1014.5
20260904004610 62 240 2.6 7.0 0.00 0.02 0.00 89 1014.5
20260904004057 62 234 1.7 4.3 0.00 0.02 0.00 89 1014.5
20260904003557 62 234 1.7 4.3 0.00 0.02 0.00 89 1014.6
20260904003100 62 232 1.7 5.2 0.00 0.02 0.00 89 1014.7
20260904002557 62 232 2.6 5.2 0.00 0.02 0.00 89 1014.7
20260904002100 62 227 2.6 5.2 0.00 0.02 0.00 89 1014.7
20260904001605 62 227 2.6 6.1 0.00 0.02 0.00 89 1014.7
20260904001057 62 226 2.6 6.1 0.00 0.02 0.00 89 1014.8
20260904000558 62 231 3.5 7.0 0.00 0.02 0.00 89 1014.9
20260904000136 62 223 2.6 7.8 0.00 0.02 0.00 89 1014.9
20260903235559 62 232 3.5 7.8 0.00 0.02 0.00 89 1015.0
20260903235101 62 236 2.6 6.1 0.00 0.02 0.00 89 1015.1
20260903234604 62 232 2.6 6.1 0.00 0.02 0.00 89 1015.1
20260903234057 62 242 2.6 6.1 0.00 0.02 0.00 89 1015.1
20260903233557 62 245 2.6 6.1 0.00 0.02 0.00 90 1015.1
20260903233112 62 244 2.6 5.2 0.00 0.02 0.00 90 1015.2
20260903232556 62 227 2.6 5.2 0.00 0.02 0.00 90 1015.0
20260903232057 62 227 1.7 7.0 0.00 0.02 0.00 90 1015.1
20260903231610 62 227 2.6 7.0 0.00 0.02 0.00 90 1015.1
20260903231057 63 220 2.6 7.0 0.00 0.02 0.00 91 1015.1
20260903230558 63 238 2.6 6.1 0.00 0.02 0.00 91 1015.2
20260903230114 63 242 2.6 6.1 0.00 0.02 0.00 91 1015.5
20260903225557 63 238 2.6 6.1 0.00 0.02 0.00 91 1015.4
20260903225057 63 236 1.7 4.3 0.00 0.02 0.00 91 1015.4
20260903224610 63 244 1.7 4.3 0.00 0.02 0.00 91 1015.3
20260903224057 63 250 1.7 2.6 0.00 0.02 0.00 92 1015.3
20260903223558 63 250 0.9 3.5 0.00 0.02 0.00 92 1015.4
20260903223059 63 250 1.7 3.5 0.00 0.02 0.00 91 1015.5
20260903222557 64 250 1.7 3.5 0.00 0.02 0.00 91 1015.5
20260903222059 64 251 1.7 3.5 0.00 0.02 0.00 92 1015.5
20260903221605 63 252 1.7 3.5 0.00 0.02 0.00 92 1015.5
20260903221056 64 254 0.0 1.7 0.00 0.02 0.00 92 1015.6
20260903220556 64 258 0.9 3.5 0.02 0.02 0.00 92 1015.7
20260903220121 64 0 0.9 3.5 0.02 0.02 0.00 91 1015.6
20260903215559 64 258 1.7 3.5 0.02 0.02 0.02 91 1015.6
20260903215058 64 267 1.7 6.1 0.02 0.02 0.02 90 1015.5
20260903214604 64 267 0.9 6.1 0.02 0.02 0.02 90 1015.3
20260903214057 64 267 2.6 6.1 0.02 0.02 0.02 90 1015.5
20260903213601 64 238 2.6 7.8 0.02 0.02 0.02 89 1015.5
20260903213101 64 263 3.5 7.8 0.02 0.02 0.02 89 1015.5
20260903212557 64 267 4.3 8.7 0.02 0.02 0.02 89 1015.6
20260903212058 65 269 4.3 13.0 0.02 0.02 0.02 88 1015.7
20260903211621 65 269 6.1 13.0 0.02 0.02 0.02 88 1015.7
20260903211100 65 264 2.6 7.8 0.02 0.02 0.02 88 1015.6
20260903210557 65 273 1.7 5.2 0.00 0.00 0.00 86 1015.6
20260903210113 65 273 1.7 6.1 0.00 0.00 0.00 86 1015.4
20260903205556 65 272 1.7 6.1 0.00 0.00 0.00 86 1015.3
20260903205056 65 275 1.7 6.1 0.00 0.00 0.00 85 1015.4
20260903204604 66 274 0.9 5.2 0.00 0.00 0.00 84 1015.3
20260903204057 66 286 1.7 7.0 0.00 0.00 0.00 84 1015.4
20260903203556 66 280 2.6 7.8 0.00 0.00 0.00 84 1015.4
20260903203100 66 252 2.6 8.7 0.00 0.00 0.00 83 1015.2
20260903202558 66 246 5.2 8.7 0.00 0.00 0.00 84 1015.4
20260903202057 66 238 4.3 9.6 0.00 0.00 0.00 84 1015.3
20260903201605 65 251 4.3 10.4 0.00 0.00 0.00 84 1015.3
20260903201057 66 259 4.3 10.4 0.00 0.00 0.00 84 1015.2
20260903200557 66 215 4.3 10.4 0.00 0.00 0.00 84 1015.2
20260903200101 66 232 5.2 9.6 0.00 0.00 0.00 84 1015.3
20260903195600 66 257 4.3 10.4 0.00 0.00 0.00 83 1015.2
20260903195056 66 225 3.5 10.4 0.00 0.00 0.00 84 1015.3
20260903194559 66 237 5.2 13.0 0.00 0.00 0.00 83 1015.4
20260903194057 66 234 6.1 13.0 0.00 0.00 0.00 83 1015.3
20260903193600 66 248 3.5 10.4 0.00 0.00 0.00 83 1015.5
20260903193103 66 250 4.3 10.4 0.00 0.00 0.00 83 1015.5
20260903192557 66 261 4.3 10.4 0.00 0.00 0.00 83 1015.6
20260903192057 66 268 3.5 10.4 0.00 0.00 0.00 82 1015.5
20260903191600 67 270 5.2 9.6 0.00 0.00 0.00 82 1015.4
20260903191057 67 244 5.2 9.6 0.00 0.00 0.00 81 1015.5
20260903190557 67 240 2.6 9.6 0.00 0.00 0.00 81 1015.5
20260903190059 67 238 5.2 12.2 0.00 0.00 0.00 81 1015.6
20260903185556 67 257 5.2 12.2 0.00 0.00 0.00 81 1015.5
20260903185056 67 247 5.2 10.4 0.00 0.00 0.00 81 1015.5
20260903184608 67 243 5.2 11.3 0.00 0.00 0.00 81 1015.5
20260903184056 67 250 4.3 11.3 0.00 0.00 0.00 81 1015.5
20260903183556 66 240 6.1 12.2 0.00 0.00 0.00 81 1015.4
20260903183106 66 230 5.2 12.2 0.00 0.00 0.00 81 1015.5
20260903182557 66 246 6.1 12.2 0.00 0.00 0.00 80 1015.3
20260903182056 66 219 5.2 12.2 0.00 0.00 0.00 80 1015.4
20260903181601 66 243 4.3 12.2 0.00 0.00 0.00 80 1015.3
20260903181057 66 246 6.1 12.2 0.00 0.00 0.00 80 1015.2
20260903180557 66 246 5.2 10.4 0.00 0.00 0.00 81 1015.1
20260903180112 66 242 4.3 10.4 0.00 0.00 0.00 80 1015.2
20260903175556 66 227 3.5 12.2 0.00 0.00 0.00 80 1015.2
20260903175056 67 242 4.3 12.2 0.00 0.00 0.00 80 1015.1
20260903174611 67 260 6.1 12.2 0.00 0.00 0.00 79 1015.0
20260903174059 67 232 4.3 12.2 0.00 0.00 0.00 79 1015.0
20260903173556 67 244 6.1 12.2 0.00 0.00 0.00 79 1015.1
20260903173120 67 242 5.2 11.3 0.00 0.00 0.00 79 1015.2
20260903172557 67 252 5.2 10.4 0.00 0.00 0.00 79 1015.2
20260903172056 67 220 5.2 12.2 0.00 0.00 0.00 78 1015.1
20260903171604 68 244 7.0 13.9 0.00 0.00 0.00 77 1015.1
20260903171058 68 222 7.0 13.9 0.00 0.00 0.00 77 1015.2
20260903170558 68 229 5.2 16.5 0.00 0.00 0.00 76 1015.1
20260903170112 68 252 8.7 16.5 0.00 0.00 0.00 76 1015.2
20260903165556 68 238 6.1 16.5 0.00 0.00 0.00 76 1015.1
20260903165056 68 263 6.1 17.4 0.00 0.00 0.00 76 1015.0
20260903164605 68 244 8.7 17.4 0.00 0.00 0.00 76 1015.1
20260903164056 68 230 8.7 14.8 0.00 0.00 0.00 76 1014.9
20260903163556 68 262 5.2 16.5 0.00 0.00 0.00 76 1015.1
20260903163114 68 230 8.7 16.5 0.00 0.00 0.00 76 1015.0
20260903162556 68 257 9.6 15.6 0.00 0.00 0.00 75 1015.0
20260903162055 69 248 9.6 16.5 0.00 0.00 0.00 75 1015.1
20260903161600 69 221 7.0 16.5 0.00 0.00 0.00 75 1015.0
20260903161056 69 230 8.7 16.5 0.00 0.00 0.00 74 1015.0
20260903160557 69 238 7.0 15.6 0.00 0.00 0.00 75 1015.1
20260903155557 69 254 6.1 17.4 0.00 0.00 0.00 75 1015.0
20260903155057 69 257 10.4 17.4 0.00 0.00 0.00 75 1015.1
20260903154607 69 257 7.8 15.6 0.00 0.00 0.00 74 1015.1
20260903154056 69 237 7.8 15.6 0.00 0.00 0.00 75 1015.1
20260903153556 69 275 7.8 16.5 0.00 0.00 0.00 74 1015.0
20260903153105 69 263 6.1 20.0 0.00 0.00 0.00 75 1014.9
20260903152558 69 240 10.4 20.0 0.00 0.00 0.00 74 1015.0
20260903152056 70 231 7.8 16.5 0.00 0.00 0.00 74 1015.0
20260903151602 70 253 10.4 16.5 0.00 0.00 0.00 72 1015.1
20260903151056 70 229 7.8 17.4 0.00 0.00 0.00 73 1015.1
20260903150556 70 229 8.7 20.0 0.00 0.00 0.00 72 1015.1
20260903150113 70 246 10.4 20.0 0.00 0.00 0.00 71 1015.0
20260903145556 69 239 8.7 16.5 0.00 0.00 0.00 72 1015.1
20260903145056 69 246 8.7 18.2 0.00 0.00 0.00 73 1015.1
20260903144604 69 258 8.7 18.2 0.00 0.00 0.00 73 1015.2
20260903144057 70 264 7.0 18.2 0.00 0.00 0.00 73 1015.1
20260903143556 69 265 9.6 18.2 0.00 0.00 0.00 74 1015.1
20260903143104 69 290 9.6 16.5 0.00 0.00 0.00 75 1015.2
20260903142556 69 247 8.7 13.9 0.00 0.00 0.00 75 1015.2
20260903142056 69 249 7.0 13.9 0.00 0.00 0.00 74 1015.3
20260903141604 69 229 7.8 15.6 0.00 0.00 0.00 75 1015.2
20260903141056 68 240 7.8 16.5 0.00 0.00 0.00 76 1015.2
20260903140556 68 252 7.8 20.0 0.00 0.00 0.00 77 1015.2
20260903140103 68 246 7.8 20.9 0.00 0.00 0.00 76 1015.2
20260903135555 68 211 11.3 20.9 0.00 0.00 0.00 76 1015.3
20260903135056 68 254 7.8 16.5 0.00 0.00 0.00 76 1015.3
20260903134603 68 263 8.7 19.1 0.00 0.00 0.00 76 1015.3
20260903134057 68 254 8.7 19.1 0.00 0.00 0.00 75 1015.3
20260903133600 68 261 9.6 20.0 0.00 0.00 0.00 75 1015.2
20260903133103 68 261 12.2 20.9 0.00 0.00 0.00 75 1015.2
20260903132557 68 227 8.7 20.9 0.00 0.00 0.00 75 1015.2
20260903132056 68 277 7.8 18.2 0.00 0.00 0.00 75 1015.2
20260903131605 68 234 10.4 18.2 0.00 0.00 0.00 74 1015.2
20260903131059 68 288 9.6 18.2 0.00 0.00 0.00 72 1015.2
20260903130558 68 276 8.7 18.2 0.00 0.00 0.00 72 1015.1
20260903130116 69 240 8.7 15.6 0.00 0.00 0.00 71 1015.1
20260903125557 69 266 9.6 14.8 0.00 0.00 0.00 70 1015.0
20260903125057 68 238 7.8 19.1 0.00 0.00 0.00 71 1015.2
20260903124618 68 246 8.7 19.1 0.00 0.00 0.00 72 1015.0
20260903124057 69 286 8.7 21.7 0.00 0.00 0.00 71 1015.1
20260903123557 69 250 10.4 21.7 0.00 0.00 0.00 69 1015.1
20260903123109 70 264 10.4 20.0 0.00 0.00 0.00 68 1015.0
20260903122600 70 238 7.8 20.9 0.00 0.00 0.00 67 1014.9
20260903122058 70 267 10.4 20.9 0.00 0.00 0.00 67 1014.9
20260903121605 71 252 8.7 20.0 0.00 0.00 0.00 66 1014.9
20260903121057 72 243 10.4 20.0 0.00 0.00 0.00 65 1014.8
20260903120559 72 273 8.7 17.4 0.00 0.00 0.00 65 1014.7
20260903120107 71 258 7.8 19.1 0.00 0.00 0.00 66 1014.6
20260903115557 71 277 9.6 19.1 0.00 0.00 0.00 66 1014.8
20260903115058 71 239 12.2 19.1 0.00 0.00 0.00 65 1015.0
20260903114608 71 249 11.3 18.2 0.00 0.00 0.00 65 1015.0
20260903114056 71 251 7.8 15.6 0.00 0.00 0.00 65 1014.9
20260903113556 71 255 8.7 15.6 0.00 0.00 0.00 64 1014.7
20260903113103 70 186 8.7 15.6 0.00 0.00 0.00 65 1014.9
20260903112600 70 241 7.8 15.6 0.00 0.00 0.00 64 1015.1
20260903112057 70 250 5.2 16.5 0.00 0.00 0.00 65 1015.0
20260903111625 69 293 10.4 16.5 0.00 0.00 0.00 66 1014.9
20260903111059 69 231 7.8 13.9 0.00 0.00 0.00 66 1015.0
20260903110557 69 243 7.8 17.4 0.00 0.00 0.00 65 1015.0
20260903110113 70 253 9.6 17.4 0.00 0.00 0.00 64 1015.1
20260903105558 70 236 9.6 13.9 0.00 0.00 0.00 63 1015.1
20260903105056 69 249 8.7 17.4 0.00 0.00 0.00 65 1015.1
20260903104632 69 267 7.8 17.4 0.00 0.00 0.00 66 1015.2
20260903104057 69 220 8.7 17.4 0.00 0.00 0.00 64 1015.3
20260903103559 69 244 7.8 17.4 0.00 0.00 0.00 64 1015.4
20260903103105 70 245 9.6 18.2 0.00 0.00 0.00 63 1015.5
20260903102559 70 240 7.0 21.7 0.00 0.00 0.00 63 1015.5
20260903102056 70 246 12.2 22.6 0.00 0.00 0.00 63 1015.3
20260903101601 71 231 11.3 22.6 0.00 0.00 0.00 62 1015.3
20260903101057 72 215 11.3 20.9 0.00 0.00 0.00 61 1015.2
20260903100557 69 273 10.4 18.2 0.00 0.00 0.00 64 1015.3
20260903100059 69 250 10.4 18.2 0.00 0.00 0.00 64 1015.4
20260903095557 69 263 7.8 15.6 0.00 0.00 0.00 64 1015.5
20260903095056 68 244 7.8 17.4 0.00 0.00 0.00 65 1015.5
20260903094610 68 235 7.0 17.4 0.00 0.00 0.00 66 1015.7
20260903094057 68 236 9.6 17.4 0.00 0.00 0.00 65 1015.6
20260903093558 68 252 7.8 16.5 0.00 0.00 0.00 65 1015.6
20260903093104 68 230 3.5 16.5 0.00 0.00 0.00 66 1015.6
20260903092557 67 235 5.2 13.0 0.00 0.00 0.00 67 1015.6
20260903092058 67 242 5.2 13.9 0.00 0.00 0.00 67 1015.7
20260903091612 67 236 5.2 17.4 0.00 0.00 0.00 67 1015.7
20260903091100 67 243 8.7 17.4 0.00 0.00 0.00 66 1015.7
20260903090558 67 230 8.7 17.4 0.00 0.00 0.00 66 1015.7
20260903090059 67 214 4.3 13.9 0.00 0.00 0.00 68 1015.7
20260903085557 67 222 6.1 13.9 0.00 0.00 0.00 69 1015.8
20260903085100 67 250 7.8 13.9 0.00 0.00 0.00 68 1015.7
20260903084558 66 257 6.1 13.0 0.00 0.00 0.00 68 1015.8
20260903084057 66 252 6.1 11.3 0.00 0.00 0.00 68 1015.8